This is the latest recevied weather packets stored in our database for station/object IZ8GMP-13. If no packets are shown the sender has not sent any weather packets the latest 10 day(s).
| Time | Temp. | Humidity | Pressure | Rain* | Wind** | Luminosity | Snow |
|---|---|---|---|---|---|---|---|
| 1788388516 | 28.33° C | 64% | 1016.9 hPa | - | - | - | - |
| 1788387312 | 28.33° C | 64% | 1017 hPa | - | - | - | - |
| 1788386109 | 28.33° C | 63% | 1017.2 hPa | - | - | - | - |
| 1788384905 | 28.33° C | 65% | 1017.2 hPa | - | - | - | - |
| 1788383702 | 28.33° C | 63% | 1017.1 hPa | - | - | - | - |
| 1788382498 | 28.33° C | 62% | 1017.2 hPa | - | - | - | - |
| 1788381295 | 28.33° C | 62% | 1017.1 hPa | - | - | - | - |
| 1788380091 | 28.33° C | 62% | 1017.2 hPa | - | - | - | - |
| 1788378888 | 28.33° C | 62% | 1017.4 hPa | - | - | - | - |
| 1788377685 | 28.33° C | 63% | 1017.4 hPa | - | - | - | - |
| 1788376481 | 28.33° C | 63% | 1017.3 hPa | - | - | - | - |
| 1788375277 | 28.33° C | 64% | 1017.3 hPa | - | - | - | - |
| 1788374074 | 28.33° C | 63% | 1017.1 hPa | - | - | - | - |
| 1788372871 | 28.33° C | 64% | 1016.8 hPa | - | - | - | - |
| 1788371667 | 28.33° C | 65% | 1016.6 hPa | - | - | - | - |
| 1788370464 | 28.33° C | 66% | 1016.4 hPa | - | - | - | - |
| 1788369260 | 28.33° C | 66% | 1016.3 hPa | - | - | - | - |
| 1788368057 | 28.89° C | 64% | 1016.5 hPa | - | - | - | - |
| 1788366853 | 29.44° C | 62% | 1016.7 hPa | - | - | - | - |
| 1788365650 | 29.44° C | 59% | 1016.6 hPa | - | - | - | - |
| 1788364446 | 29.44° C | 58% | 1016.6 hPa | - | - | - | - |
| 1788363251 | 29.44° C | 57% | 1016.7 hPa | - | - | - | - |
| 1788362039 | 29.44° C | 57% | 1016.7 hPa | - | - | - | - |
| 1788360836 | 30.56° C | 47% | 1016.8 hPa | - | - | - | - |
| 1788359632 | 30.56° C | 52% | 1016.8 hPa | - | - | - | - |
* Rain since midnight (hover to see other rain measurements)
** Current wind speed in m/s (hover to see current wind gust speed)